Location: Unspecified
(0.0000°N, 0.0000°E)
Time: 00:33:01
(UTC+00:00)

IBEX - Visible Passes

Search period start: 22 May 2019 00:00
Search period end: 01 June 2019 00:00
Orbit: 43050 x 333428 km, 30.2° (Epoch: 06 August)

Date Brightness Start Highest point End Pass type
(mag) Time Alt. Az. Time Alt. Az. Time Alt. Az.
22 May ? 19:37:24 10° ENE 01:01:28 79° N 06:23:49 10° W visible
23 May ? 20:13:54 10° E 01:35:47 85° N 06:57:05 10° W visible
24 May ? 20:40:47 10° E 02:01:55 89° N 07:22:57 10° W visible
25 May ? 21:04:58 10° E 02:25:51 87° S 07:46:57 10° W visible
26 May ? 21:30:30 10° E 02:51:25 82° S 08:13:01 10° W visible
27 May ? 22:02:22 10° ESE 03:23:57 77° S 08:47:11 10° WSW visible
28 May ? 22:53:17 10° ESE 04:18:27 70° S 09:49:26 10° WSW visible
30 May ? 01:34:51 10° ESE 14:30:38 67° WSW 01:23:41 10° WNW visible
